[[{"header":{"parameterUnit":"m.s-1","parameterCategory":1,"la1":30.2991,"la2":30.254,"lo1":-89.0895,"lo2":-89.0444,"dy":0.0017,"dx":0.0017,"nx":28,"ny":28,"refTime":"2024-09-30T09:00:00:Z","depth":0,"parameterNumber":2,"parameterNumberName":"U-component_of_WINDS"},"data":[0,0,0,0,0,0,0,0,0,0,0,0,0,0,0,0,0,0,0,0,0,0,0,0,0,0,0,0,0,0,0,0,0,0,0,0,0,0,0,0,0,0,0,0,0,0,0,0,0,0,0,0,0,0,0,0,0,0,1.4602,1.4603,0,1.4645,1.4645,1.4646,1.4622,1.462,1.4619,1.4618,1.4661,1.4663,1.4665,0,0,0,0,0,0,0,0,0,0,0,0,0,1.4499,1.4501,1.4602,1.4603,1.4603,1.4645,1.4645,1.4646,1.4622,1.462,1.4619,1.4617,1.466,1.4663,1.4666,0,0,0,0,0,0,0,0,0,0,0,0,0,1.4543,1.4502,1.4602,1.4596,1.4596,1.4645,1.4645,1.4646,1.4622,1.462,1.4618,1.4617,1.4659,1.4663,1.4666,1.4722,0,0,1.4676,1.4678,0,0,0,0,0,0,0,0,1.4541,1.4547,1.4597,1.4597,1.4597,1.4626,1.4625,1.4672,1.4622,1.4612,1.4618,1.4616,1.4651,1.4655,1.4667,1.4724,1.4726,1.4677,1.4679,1.468,1.4681,0,0,0,0,0,0,0,1.4538,1.4545,1.4619,1.4597,1.4597,1.4591,1.4595,1.4633,1.4641,1.4613,1.4611,1.4617,1.465,1.4663,1.4667,1.4727,1.4677,1.4679,1.4682,1.4683,1.4831,1.4833,0,0,0,0,0,0,1.4535,1.4543,1.4618,1.462,1.4564,1.4595,1.4599,1.4618,1.464,1.4642,1.4618,1.4615,1.4658,1.4663,1.4669,1.4735,1.468,1.4683,1.4685,1.483,1.4832,1.4834,0,0,0,0,0,0,1.4533,1.4542,1.4616,1.4581,1.459,1.4598,1.462,1.462,1.4633,1.4644,1.4645,1.463,1.4657,1.4664,1.4709,1.4736,1.4685,1.4688,1.4827,1.483,1.4833,1.4868,0,0,0,0,0,0,1.453,1.4542,1.4563,1.4582,1.4592,1.4656,1.4622,1.4622,1.4639,1.4636,1.4656,1.4657,1.4656,1.4704,1.4712,1.474,1.469,1.4825,1.4829,1.4832,1.4864,1.4872,1.4878,0,0,0,0,0,1.4527,1.4572,1.4564,1.4574,1.4619,1.4657,1.4663,1.4661,1.4641,1.4663,1.467,1.4657,1.4732,1.4709,1.4718,1.4747,1.4823,1.4828,1.4832,1.4861,1.487,1.4878,0,0,0,0,0,0,1.4556,1.4574,1.4566,1.4619,1.4637,1.4653,1.468,1.4671,1.4695,1.4691,1.4687,1.4692,1.4738,1.4747,1.4721,1.4802,1.4774,1.4781,1.4794,1.4802,1.4809,1.4805,1.4693,0,0,0,0,0,1.4569,1.4598,1.4612,1.4657,1.4667,1.4672,1.4689,1.4686,1.4704,1.4711,1.4722,1.474,1.4768,1.4786,1.4812,1.4866,1.4869,1.4891,1.4897,1.4903,1.4908,1.4936,1.4945,1.4848,1.4848,1.4848,0,0,1.4595,1.4608,1.4627,1.4663,1.4677,1.4707,1.4679,1.4712,1.4734,1.4716,1.4759,1.4767,1.4787,1.4837,1.4859,1.4846,1.4935,1.4908,1.4913,1.4915,1.4941,1.495,1.4958,1.4851,1.4851,1.485,0,0,1.4657,1.4671,1.4709,1.4724,1.4745,1.4748,1.4757,1.4775,1.478,1.4823,1.481,1.4836,1.4884,1.4898,1.4912,1.498,1.4968,1.4989,1.5024,1.5051,1.5058,1.5065,1.5088,1.5096,1.4994,1.4994,1.4994,0,1.4687,1.4732,1.473,1.4764,1.478,1.4766,1.4804,1.4818,1.4846,1.4857,1.4842,1.4901,1.4914,1.4966,1.4982,1.4994,1.5004,1.4986,1.5058,1.5064,1.507,1.5092,1.5101,1.4997,1.4996,1.4996,1.4996,0,1.4767,1.4798,1.4826,1.4854,1.4873,1.4909,1.4912,1.4932,1.4927,1.4932,1.4975,1.499,1.5018,1.5031,1.5027,1.5082,1.5073,1.5058,1.503,1.5082,1.5102,1.511,1.5,1.4999,1.4998,1.4998,0,0,1.4848,1.4874,1.4884,1.4896,1.4918,1.4942,1.4977,1.5005,1.5021,1.5042,1.507,1.5111,1.5097,1.5112,1.511,1.5134,1.5185,1.5116,1.5117,1.5127,1.5245,1.5254,1.5264,1.5178,1.518,1.5181,1.5242,0,1.491,1.4971,1.4971,1.5027,1.5055,1.5042,1.5073,1.509,1.5095,1.512,1.5126,1.5154,1.5135,1.5144,1.5167,1.5174,1.5208,1.517,1.5203,1.5205,1.5197,1.5275,1.5285,1.5342,1.525,1.5252,1.5253,0,1.4991,1.5014,1.5073,1.509,1.5102,1.5129,1.5154,1.5178,1.5196,1.5199,1.5216,1.521,1.5245,1.5217,1.5265,1.5239,1.5252,1.5258,1.526,1.5262,1.523,1.5276,1.536,1.5368,1.5265,1.5264,1.5263,0,1.5042,1.5088,1.5128,1.5139,1.5161,1.518,1.519,1.5206,1.5223,1.5245,1.5255,1.5281,1.5295,1.5314,1.5315,1.5295,1.5363,1.5336,1.5364,1.5364,1.5377,1.5376,1.5463,1.539,1.539,1.539,1.5389,0,1.5111,1.5147,1.5151,1.5176,1.5216,1.5215,1.5255,1.5263,1.5278,1.5303,1.5295,1.5319,1.5319,1.5344,1.5345,1.5383,1.539,1.5392,1.5391,1.5392,1.5391,1.5399,1.5395,1.5392,1.5391,1.5391,1.539,0,1.5174,1.5178,1.5221,1.5238,1.5243,1.5272,1.5286,1.5309,1.5314,1.5347,1.5355,1.5362,1.5391,1.5394,1.5428,1.5428,1.5474,1.547,1.5467,1.5466,1.5494,1.549,1.5587,1.5599,1.552,1.5521,1.5521,0,1.5216,1.5244,1.5263,1.528,1.5291,1.5318,1.5334,1.5335,1.5352,1.5375,1.5395,1.5423,1.5445,1.5491,1.55,1.5525,1.552,1.5553,1.5524,1.5523,1.5519,1.5516,1.5518,1.5558,1.5558,1.5559,1.556,0,1.5291,1.5291,1.5316,1.5341,1.5361,1.5381,1.5399,1.5413,1.5415,1.5436,1.5465,1.5482,1.5516,1.5543,1.5568,1.5577,1.5569,1.5569,1.5577,1.5576,1.5573,1.5573,1.548,1.5566,1.5566,1.5565,1.5565,1.5564,1.5343,1.5367,1.5384,1.5411,1.5425,1.5442,1.5465,1.5472,1.5497,1.5524,1.5523,1.5555,1.5572,1.5604,1.5616,1.564,1.5629,1.5641,1.5643,1.5646,1.5648,1.557,1.5645,1.5645,1.5645,1.5644,1.5644,0,1.5416,1.5426,1.5451,1.5477,1.5498,1.5489,1.5509,1.5527,1.5555,1.5572,1.5593,1.5626,1.5653,1.5663,1.5689,1.5706,1.5703,1.5713,1.571,1.5712,1.5657,1.5647,1.5715,1.5715,1.5715,1.5715,1.5715,1.5715,1.5456,1.5494,1.5497,1.5542,1.5552,1.5583,1.5595,1.5611,1.5624,1.5661,1.5683,1.5689,1.5703,1.573,1.5753,1.5756,1.5765,1.5776,1.5776,1.5724,1.5717,1.571,1.57,1.5778,1.5779,1.583,1.583,1.5831]},{"header":{"parameterUnit":"m.s-1","parameterCategory":1,"la1":30.2991,"la2":30.254,"lo1":-89.0895,"lo2":-89.0444,"dy":0.0017,"dx":0.0017,"nx":28,"ny":28,"refTime":"2024-09-30T09:00:00:Z","depth":0,"parameterNumber":3,"parameterNumberName":"V-component_of_WINDS"},"data":[0,0,0,0,0,0,0,0,0,0,0,0,0,0,0,0,0,0,0,0,0,0,0,0,0,0,0,0,0,0,0,0,0,0,0,0,0,0,0,0,0,0,0,0,0,0,0,0,0,0,0,0,0,0,0,0,0,0,1.3882,1.3882,0,1.3899,1.3899,1.3899,1.3875,1.3874,1.3873,1.3872,1.3888,1.389,1.3891,0,0,0,0,0,0,0,0,0,0,0,0,0,1.3825,1.3826,1.3882,1.3882,1.3882,1.3899,1.3899,1.3899,1.3875,1.3874,1.3873,1.3872,1.3888,1.389,1.3891,0,0,0,0,0,0,0,0,0,0,0,0,0,1.3846,1.3826,1.3882,1.3872,1.3871,1.3899,1.3899,1.39,1.3875,1.3874,1.3872,1.3871,1.3888,1.3889,1.3891,1.3929,0,0,1.3897,1.3898,0,0,0,0,0,0,0,0,1.3845,1.3849,1.3873,1.3873,1.3872,1.3883,1.3885,1.3909,1.3875,1.3874,1.3872,1.3871,1.3888,1.3889,1.3896,1.393,1.393,1.3897,1.3898,1.3899,1.39,0,0,0,0,0,0,0,1.3844,1.3848,1.3888,1.3873,1.3873,1.3866,1.3867,1.389,1.3888,1.3874,1.3872,1.3874,1.3887,1.3894,1.3896,1.3931,1.3897,1.3899,1.39,1.3901,1.3995,1.3997,0,0,0,0,0,0,1.3844,1.3847,1.3888,1.3889,1.3855,1.3868,1.387,1.3881,1.3887,1.3887,1.3875,1.3873,1.3891,1.3894,1.3896,1.394,1.3899,1.3901,1.3902,1.3994,1.3996,1.3997,0,0,0,0,0,0,1.3843,1.3848,1.3887,1.3867,1.3872,1.387,1.3883,1.3882,1.3889,1.3889,1.3888,1.3883,1.389,1.3894,1.3921,1.394,1.3902,1.3903,1.3992,1.3995,1.3996,1.4029,0,0,0,0,0,0,1.3841,1.3847,1.3862,1.3868,1.3873,1.3912,1.3884,1.3883,1.3892,1.3889,1.3896,1.3895,1.389,1.3918,1.3923,1.3942,1.3905,1.3991,1.3993,1.3996,1.4026,1.4032,1.4037,0,0,0,0,0,1.3839,1.3871,1.3863,1.3868,1.3892,1.3913,1.3916,1.391,1.3894,1.3908,1.3908,1.3895,1.3938,1.3921,1.3926,1.3946,1.3989,1.3993,1.3996,1.4023,1.403,1.4036,0,0,0,0,0,0,1.3867,1.3871,1.3863,1.3897,1.3905,1.3909,1.3927,1.3917,1.3929,1.3926,1.3917,1.3918,1.3947,1.395,1.3931,1.3983,1.3961,1.3965,1.398,1.3987,1.3992,1.3991,1.3906,0,0,0,0,0,1.3877,1.3895,1.3897,1.3927,1.3932,1.3929,1.3938,1.3932,1.394,1.3943,1.3945,1.3952,1.3967,1.3977,1.3991,1.4026,1.4027,1.4042,1.4048,1.4052,1.4056,1.4074,1.408,1.4008,1.4007,1.4007,0,0,1.3898,1.3903,1.3915,1.3933,1.3939,1.3957,1.3932,1.3952,1.3965,1.3946,1.3972,1.3973,1.3981,1.4012,1.4026,1.4015,1.4076,1.4056,1.406,1.4061,1.4078,1.4084,1.4091,1.401,1.4009,1.4009,0,0,1.3946,1.3952,1.3977,1.3983,1.3991,1.3989,1.3995,1.4001,1.4001,1.4027,1.4012,1.4027,1.4053,1.4059,1.4066,1.4115,1.4102,1.4119,1.4147,1.4165,1.417,1.4175,1.4192,1.4198,1.4123,1.4123,1.4123,0,1.3971,1.3998,1.3991,1.4012,1.402,1.4004,1.4029,1.4034,1.4047,1.4053,1.404,1.4072,1.4076,1.4108,1.412,1.4126,1.4132,1.4118,1.417,1.4175,1.418,1.4195,1.4202,1.4125,1.4125,1.4125,1.4124,0,1.4028,1.4047,1.4066,1.4079,1.4089,1.4112,1.4108,1.4119,1.4112,1.4111,1.4136,1.4141,1.4155,1.4162,1.4155,1.4192,1.4185,1.4172,1.4149,1.4189,1.4203,1.4209,1.4128,1.4127,1.4126,1.4126,0,0,1.4094,1.4102,1.4109,1.4114,1.4122,1.4136,1.4158,1.4172,1.4182,1.4191,1.4208,1.423,1.4217,1.4225,1.4218,1.4234,1.4271,1.4218,1.4218,1.4227,1.4312,1.4322,1.4329,1.4264,1.4265,1.4266,1.4311,0,1.4141,1.4179,1.4173,1.4209,1.4226,1.421,1.4229,1.4236,1.4235,1.4249,1.4248,1.4263,1.4246,1.425,1.4264,1.4264,1.4288,1.4261,1.4279,1.428,1.4277,1.4337,1.4347,1.439,1.4317,1.4318,1.4318,0,1.4201,1.4212,1.4251,1.4255,1.4262,1.4279,1.4291,1.4305,1.4311,1.431,1.4317,1.4308,1.4329,1.4306,1.4334,1.4316,1.4323,1.4324,1.4325,1.4326,1.4301,1.4339,1.4403,1.441,1.4328,1.4327,1.4326,0,1.4244,1.4269,1.4295,1.43,1.4306,1.4319,1.4322,1.4327,1.4335,1.4346,1.4351,1.4363,1.437,1.4379,1.4373,1.4358,1.4402,1.4379,1.4401,1.4401,1.441,1.441,1.4477,1.4416,1.4416,1.4416,1.4416,0,1.4297,1.4321,1.4315,1.4331,1.4356,1.4349,1.4374,1.4375,1.438,1.4395,1.4383,1.4397,1.4388,1.4402,1.4397,1.4421,1.4424,1.4423,1.4421,1.4424,1.4424,1.4428,1.4424,1.4418,1.4417,1.4417,1.4417,0,1.435,1.4347,1.4374,1.4377,1.4379,1.4398,1.44,1.4415,1.4413,1.4432,1.4436,1.4433,1.4449,1.4444,1.446,1.4457,1.4486,1.4481,1.4484,1.4483,1.4504,1.4502,1.4575,1.4584,1.4518,1.4519,1.452,0,1.4384,1.4402,1.4407,1.4417,1.4421,1.4436,1.4445,1.4437,1.4447,1.4455,1.4468,1.4482,1.4493,1.4518,1.4517,1.4529,1.4524,1.4549,1.4526,1.4527,1.4524,1.4522,1.4524,1.4553,1.4554,1.4555,1.4555,0,1.4444,1.4441,1.4454,1.4467,1.4477,1.4487,1.4495,1.4503,1.4496,1.4507,1.4523,1.4531,1.4548,1.4562,1.4573,1.4575,1.4564,1.4563,1.4568,1.4571,1.4571,1.457,1.4496,1.4561,1.456,1.456,1.456,1.4559,1.4487,1.4502,1.4508,1.4523,1.4528,1.4536,1.455,1.455,1.4563,1.4576,1.457,1.4588,1.4593,1.4607,1.4611,1.4624,1.4614,1.4622,1.4624,1.4626,1.4629,1.457,1.4626,1.4626,1.4626,1.4625,1.4625,0,1.4546,1.4549,1.4563,1.4575,1.4586,1.4575,1.4583,1.4593,1.4609,1.4615,1.4626,1.4643,1.4657,1.4657,1.4669,1.4679,1.4675,1.4683,1.4682,1.4682,1.4637,1.4631,1.4686,1.4686,1.4686,1.4686,1.4686,1.4686,1.4578,1.4602,1.46,1.4627,1.4629,1.4647,1.4652,1.4659,1.4664,1.4684,1.4695,1.4695,1.4698,1.471,1.4722,1.4721,1.4726,1.4736,1.4734,1.4692,1.4685,1.468,1.4674,1.4738,1.4738,1.4778,1.4778,1.4779]}]]